Location: Roanoke
(37.2710°N, 79.9420°W)
Time: 16:50:42
(UTC-05:00)

Transit 2A - Pass Details

Date: 01 December 2019
Orbit: 602 x 957 km, 66.7° (Epoch: 06 December)

Event Time Altitude Azimuth Distance (km) Brightness Sun altitude
Rises 18:58:01 0° 325° (NW) 2,872 9.3 -22.5°
Reaches altitude 10° 19:00:17 10° 319° (NW) 1,984 8.5 -22.9°
Maximum altitude 19:04:32 46° 247° (WSW) 862 6.6 -23.8°
Drops below altitude 10° 19:09:03 10° 174° (S) 2,112 8.3 -24.7°
Sets 19:11:32 0° 168° (SSE) 3,079 9.1 -25.1°
